Date String (YYYY-MM-DD hh:mm:ss) UTC,Instrument flags,absolute air pressure of the measurement (hPa),sample flow rate (lpm),inlet stack bypass flow (lpm),air temperature of the measurement (°C),ambient temperature measured by the external sensor (°C),aerosol sample conditioner tube jacket temperature (°C),OPC LED temperature (°C),internal box temperature (°C),relative humidity of the measurement (%),span deviation,mass concentration of particles derived from Lorenz-Mie calculation of OPC scattering (μg/m³),mass concentration of particles derived from Lorenz-Mie calculation of OPC scattering (μg/m³),mass concentration of particles derived from Lorenz-Mie calculation of OPC scattering (μg/m³)
DateTimeUTC,F1_M11,P_M11,Q1_M11,Q2_M11,T1_M11,T2_M11,T3_M11,T4_M11,T5_M11,U1_M11,ZSPAN_M11,X0_M11,X2_M11,X1_M11
2024-06-03 21:00:00,SystemResetWarning,0820.4,5.00,000.00,028.8,026.5,000.0,037.5,030.0,014.7,0000.0,0013.80,0004.57,0003.40
2024-06-03 21:01:00,SystemResetWarning,0820.4,5.00,000.00,028.8,026.9,000.0,037.4,030.2,015.0,0000.0,0013.67,0004.57,0003.41
2024-06-03 21:02:00,SystemResetWarning,0820.4,5.01,000.00,028.9,027.3,000.0,037.4,030.5,014.7,0000.0,0013.55,0004.56,0003.41
2024-06-03 21:03:00,SystemResetWarning,0820.4,4.99,000.00,028.9,027.7,000.0,037.3,030.6,015.3,0000.0,0012.68,0004.50,0003.40
2024-06-03 21:04:00,SystemResetWarning,0820.4,5.00,000.00,029.0,028.1,000.0,037.3,030.8,016.0,0000.0,0012.16,0004.49,0003.40
2024-06-03 21:05:00,SystemResetWarning,0820.7,4.99,000.00,029.1,028.3,000.0,037.3,030.9,015.8,0000.0,0012.14,0004.45,0003.40
2024-06-03 21:06:00,SystemResetWarning,0820.7,5.00,000.00,029.2,028.6,000.0,037.3,031.0,014.7,0000.0,0011.64,0004.41,0003.40
2024-06-03 21:07:00,SystemResetWarning,0820.9,5.00,000.00,029.3,028.8,000.0,037.4,031.1,014.9,0000.0,0011.89,0004.41,0003.40
2024-06-03 21:08:00,SystemResetWarning,0820.7,5.01,000.00,029.4,028.9,000.0,037.4,031.2,014.5,0000.0,0011.80,0004.36,0003.40
2024-06-03 21:09:00,SystemResetWarning,0820.8,5.00,000.00,029.4,029.1,000.0,037.4,031.3,013.9,0000.0,0011.92,0004.32,0003.39
2024-06-03 21:10:00,SystemResetWarning,0820.7,5.00,000.00,029.5,029.1,000.0,037.5,031.3,013.9,0000.0,0012.45,0004.28,0003.38
2024-06-03 21:11:00,SystemResetWarning,0820.5,4.97,000.00,029.4,027.4,000.0,037.6,030.5,014.1,0000.0,0011.57,0004.23,0003.37
2024-06-03 21:12:00,SystemResetWarning,0820.3,5.03,000.00,028.9,025.7,000.0,037.6,029.6,014.3,0000.0,0011.39,0004.17,0003.36
2024-06-03 21:13:00,SystemResetWarning,0820.3,4.99,000.00,028.8,026.0,000.0,037.6,029.7,015.3,0000.0,0011.40,0004.19,0003.36
2024-06-03 21:14:00,SystemResetWarning,0820.3,4.99,000.00,028.8,026.5,000.0,037.4,030.0,016.0,0000.0,0011.68,0004.23,0003.37
2024-06-03 21:15:00,SystemResetWarning,0820.4,5.01,000.00,028.8,027.0,000.0,037.4,030.2,016.6,0000.0,0012.08,0004.27,0003.35
2024-06-03 21:16:00,SystemResetWarning,0820.4,5.01,000.00,028.9,027.4,000.0,037.3,030.5,017.0,0000.0,0011.58,0004.29,0003.35
2024-06-03 21:17:00,SystemResetWarning,0820.4,5.00,000.00,028.9,027.7,000.0,037.3,030.6,016.8,0000.0,0012.61,0004.31,0003.34
2024-06-03 21:18:00,SystemResetWarning,0820.4,5.00,000.00,029.0,028.0,000.0,037.3,030.8,015.6,0000.0,0011.90,0004.26,0003.33
2024-06-03 21:19:00,SystemResetWarning,0820.4,5.00,000.00,029.1,028.3,000.0,037.3,030.9,015.8,0000.0,0011.65,0004.24,0003.32
2024-06-03 21:20:00,SystemResetWarning,0820.4,5.00,000.00,029.2,028.5,000.0,037.3,031.0,015.4,0000.0,0011.79,0004.28,0003.31
2024-06-03 21:21:00,SystemResetWarning,0820.4,4.99,000.00,029.3,028.7,000.0,037.3,031.2,015.1,0000.0,0011.26,0004.28,0003.30
2024-06-03 21:22:00,SystemResetWarning,0820.4,4.99,000.00,029.4,028.9,000.0,037.4,031.3,015.4,0000.0,0012.12,0004.30,0003.29
2024-06-03 21:23:00,SystemResetWarning,0820.4,5.00,000.00,029.5,029.0,000.0,037.4,031.3,015.2,0000.0,0013.12,0004.30,0003.26
2024-06-03 21:24:00,SystemResetWarning,0820.3,5.00,000.00,029.4,028.1,000.0,037.5,030.8,015.1,0000.0,0013.90,0004.30,0003.24
2024-06-03 21:25:00,SystemResetWarning,0820.2,5.00,000.00,029.1,025.9,000.0,037.5,029.7,014.8,0000.0,0013.60,0004.24,0003.23
2024-06-03 21:26:00,SystemResetWarning,0820.2,5.01,000.00,028.8,025.7,000.0,037.5,029.6,015.0,0000.0,0013.50,0004.21,0003.22
2024-06-03 21:27:00,SystemResetWarning,0820.3,5.00,000.00,028.7,026.3,000.0,037.4,029.8,015.9,0000.0,0013.72,0004.19,0003.20
2024-06-03 21:28:00,SystemResetWarning,0820.2,5.00,000.00,028.8,026.7,000.0,037.3,030.1,016.6,0000.0,0013.05,0004.17,0003.20
2024-06-03 21:29:00,SystemResetWarning,0820.2,5.00,000.00,028.8,027.2,000.0,037.3,030.3,016.6,0000.0,0013.24,0004.17,0003.20
2024-06-03 21:30:00,SystemResetWarning,0820.3,5.00,000.00,028.9,027.6,000.0,037.3,030.5,014.6,0000.0,0013.58,0004.20,0003.19
2024-06-03 21:31:00,SystemResetWarning,0820.3,5.00,000.00,029.0,027.9,000.0,037.3,030.7,015.0,0000.0,0013.33,0004.19,0003.19
2024-06-03 21:32:00,SystemResetWarning,0820.2,5.00,000.00,029.0,028.2,000.0,037.3,030.8,014.2,0000.0,0013.25,0004.18,0003.19
2024-06-03 21:33:00,SystemResetWarning,0820.2,4.99,000.00,029.1,028.4,000.0,037.3,030.9,014.7,0000.0,0012.48,0004.15,0003.20
2024-06-03 21:34:00,SystemResetWarning,0820.2,5.00,000.00,029.2,028.6,000.0,037.3,031.0,013.9,0000.0,0011.65,0004.15,0003.21
2024-06-03 21:35:00,SystemResetWarning,0820.2,5.00,000.00,029.3,028.8,000.0,037.3,031.1,013.7,0000.0,0010.93,0004.11,0003.20
2024-06-03 21:36:00,SystemResetWarning,0820.2,5.00,000.00,029.4,029.0,000.0,037.4,031.2,014.4,0000.0,0011.26,0004.11,0003.18
2024-06-03 21:37:00,SystemResetWarning,0820.2,5.00,000.00,029.5,029.1,000.0,037.4,031.3,013.8,0000.0,0012.15,0004.09,0003.18
2024-06-03 21:38:00,SystemResetWarning,0820.2,4.99,000.00,029.5,028.9,000.0,037.5,031.2,013.7,0000.0,0012.57,0004.06,0003.18
2024-06-03 21:39:00,SystemResetWarning,0820.1,4.99,000.00,029.3,026.9,000.0,037.6,030.2,013.5,0000.0,0012.10,0004.05,0003.17
2024-06-03 21:40:00,SystemResetWarning,0820.1,5.02,000.00,028.9,025.7,000.0,037.6,029.6,014.1,0000.0,0012.55,0004.06,0003.16
2024-06-03 21:41:00,SystemResetWarning,0820.2,5.00,000.00,028.8,026.2,000.0,037.5,029.8,014.6,0000.0,0012.56,0004.03,0003.16
2024-06-03 21:42:00,SystemResetWarning,0820.1,5.00,000.00,028.8,026.6,000.0,037.4,030.0,014.8,0000.0,0013.19,0003.99,0003.14
2024-06-03 21:43:00,SystemResetWarning,0820.0,5.00,000.00,028.8,027.1,000.0,037.3,030.3,015.2,0000.0,0013.51,0004.02,0003.14
2024-06-03 21:44:00,SystemResetWarning,0820.1,5.00,000.00,028.9,027.5,000.0,037.3,030.5,015.3,0000.0,0014.09,0004.05,0003.13
2024-06-03 21:45:00,SystemResetWarning,0820.1,4.99,000.00,028.9,027.8,000.0,037.3,030.6,015.4,0000.0,0014.58,0004.04,0003.13
2024-06-03 21:46:00,SystemResetWarning,0820.1,4.99,000.00,029.0,028.2,000.0,037.3,030.8,014.5,0000.0,0014.57,0004.05,0003.14
2024-06-03 21:47:00,SystemResetWarning,0820.1,5.01,000.00,029.1,028.4,000.0,037.3,030.9,014.0,0000.0,0014.29,0004.08,0003.14
2024-06-03 21:48:00,SystemResetWarning,0820.1,5.00,000.00,029.2,028.6,000.0,037.3,031.0,013.8,0000.0,0013.24,0004.11,0003.13
2024-06-03 21:49:00,SystemResetWarning,0820.1,5.00,000.00,029.3,028.8,000.0,037.3,031.1,013.9,0000.0,0012.65,0004.13,0003.13
2024-06-03 21:50:00,SystemResetWarning,0820.1,5.01,000.00,029.4,029.0,000.0,037.4,031.2,014.0,0000.0,0012.68,0004.08,0003.13
2024-06-03 21:51:00,SystemResetWarning,0820.2,4.99,000.00,029.5,029.1,000.0,037.4,031.3,013.9,0000.0,0012.98,0004.04,0003.13
2024-06-03 21:52:00,SystemResetWarning,0820.4,5.00,000.00,029.5,029.2,000.0,037.5,031.4,013.7,0000.0,0013.08,0004.03,0003.13
2024-06-03 21:53:00,SystemResetWarning,0820.1,4.99,000.00,029.5,027.9,000.0,037.6,030.7,013.5,0000.0,0012.63,0004.01,0003.12
2024-06-03 21:54:00,SystemResetWarning,0820.1,5.01,000.00,029.0,025.9,000.0,037.6,029.7,013.7,0000.0,0012.82,0004.01,0003.12
2024-06-03 21:55:00,SystemResetWarning,0820.1,5.01,000.00,028.8,026.1,000.0,037.6,029.7,014.9,0000.0,0012.75,0004.05,0003.13
2024-06-03 21:56:00,SystemResetWarning,0820.0,4.99,000.00,028.8,026.6,000.0,037.5,030.0,015.5,0000.0,0012.28,0004.10,0003.14
2024-06-03 21:57:00,SystemResetWarning,0820.2,4.99,000.00,028.8,027.0,000.0,037.4,030.3,014.9,0000.0,0012.32,0004.14,0003.13
2024-06-03 21:58:00,SystemResetWarning,0820.0,5.00,000.00,028.9,027.4,000.0,037.4,030.5,015.5,0000.0,0012.38,0004.13,0003.13
2024-06-03 21:59:00,SystemResetWarning,0820.0,5.00,000.00,029.0,027.8,000.0,037.3,030.7,014.0,0000.0,0012.45,0004.10,0003.14
